Sault Ste Marie, MI

11:11 PM EDT on April 23, 2018 (GMT -0400)
Sault Ste Marie Municipal / Sanderson Field

Weather History for KANJ - February, 2013

Change the Weather History Date:

Monday, February 18, 2013

  Actual Average Record
Temperature  
Mean Temperature 20 °F 18 °F  
Max Temperature 31 °F 27 °F 49 °F (2017)
Min Temperature 8 °F 10 °F -27 °F (1979)
Degree Days  
Heating Degree Days 45 47  
Month to date heating degree days 921 871  
Since 1 July heating degree days 5304 5671  
Moisture  
Dew Point 15 °F    
Average Humidity 72    
Maximum Humidity 85    
Minimum Humidity 58    
Precipitation  
Precipitation 0.05 in 0.04 in 0.59 in (1972)
Month to date precipitation 1.34 0.86  
Year to date precipitation 4.63 3.05  
Snow  
Snow 0.10 in 0.60 in 8.30 in (1972)
Month to date snowfall 17.3 13.0  
Since 1 July snowfall 106.7 94.6  
Snow Depth 21.00 in    
Sea Level Pressure  
Sea Level Pressure 29.82 in    
Wind  
Wind Speed 11 mph (ESE)    
Max Wind Speed 25 mph    
Max Gust Speed 35 mph    
Visibility 8 miles    
Events Snow    
T = Trace of Precipitation, MM = Missing Value Source: NWS Daily Summary

Daily Weather History Graph

Daily Weather History Graph

Search for Another Location

Airport or City:

Astronomy

Feb. 18, 2013 Rise Set
Actual Time 7:35 AM EST 6:07 PM EST
Civil Twilight 7:04 AM EST 6:38 PM EST
Nautical Twilight 6:29 AM EST 7:13 PM EST
Astronomical Twilight 5:54 AM EST 7:48 PM EST
Moon 11:42 AM EST (2/18) 2:24 AM EST (2/18)
Length of Visible Light 11h 33m
Length of Day
10h 32m
First Quarter, 58% of the Moon is Illuminated
Feb 18
First Quarter
Feb 25
Full
Mar 4
Last Quarter
Mar 11
New
Mar 19
First Quarter

Hourly Weather History & Observations

Time (EST) Temp. Windchill Dew Point Humidity Pressure Visibility Wind Dir Wind Speed Gust Speed Precip Events Conditions
12:50 AM 8.6 °F 0.1 °F 1.4 °F 73% 30.07 in 10.0 mi ESE 4.6 mph - N/A   Overcast
12:55 AM 10.0 °F 0.4 °F 1.9 °F 70% 30.12 in 10.0 mi East 5.8 mph - N/A   Overcast
1:44 AM 10.9 °F 2.9 °F 3.0 °F 70% 30.06 in 10.0 mi ESE 4.6 mph - N/A   Overcast
1:55 AM 10.9 °F 4.7 °F 3.0 °F 70% 30.11 in 10.0 mi East 3.5 mph - N/A   Overcast
2:55 AM 12.0 °F 2.7 °F 3.9 °F 70% 30.10 in 10.0 mi East 5.8 mph - N/A   Overcast
3:55 AM 10.9 °F 1.4 °F 3.9 °F 73% 30.08 in 10.0 mi East 5.8 mph - N/A   Overcast
4:55 AM 10.0 °F 0.4 °F 3.0 °F 73% 30.06 in 10.0 mi East 5.8 mph - N/A   Mostly Cloudy
5:55 AM 10.0 °F 0.4 °F 3.0 °F 73% 30.04 in 10.0 mi East 5.8 mph - N/A   Scattered Clouds
6:55 AM 10.0 °F -2.9 °F 3.9 °F 76% 30.00 in 10.0 mi East 9.2 mph - N/A   Clear
7:55 AM 12.0 °F -2.0 °F 5.0 °F 73% 29.98 in 10.0 mi East 11.5 mph - N/A   Overcast
8:55 AM 14.0 °F 2.9 °F 7.0 °F 74% 29.95 in 10.0 mi East 8.1 mph - N/A   Overcast
9:55 AM 16.0 °F 4.4 °F 9.0 °F 74% 29.94 in 2.5 mi East 9.2 mph - 0.00 in Snow Light Snow
10:13 AM 17.1 °F 5.0 °F 10.0 °F 74% 29.88 in 4.0 mi ESE 10.4 mph - 0.00 in Snow Light Snow
10:55 AM 19.0 °F 8.2 °F 10.9 °F 71% 29.91 in 10.0 mi ESE 9.2 mph 19.6 mph 0.00 in   Overcast
11:03 AM 19.0 °F 6.1 °F 12.0 °F 74% 29.86 in 9.0 mi ESE 12.7 mph 20.7 mph N/A   Overcast
11:45 AM 21.9 °F 10.4 °F 14.0 °F 72% 29.82 in 10.0 mi East 11.5 mph 19.6 mph N/A   Overcast
11:55 AM 21.9 °F 9.2 °F 14.0 °F 72% 29.86 in 10.0 mi ESE 13.8 mph 21.9 mph N/A   Overcast
12:55 PM 27.0 °F 15.6 °F 17.1 °F 66% 29.81 in 10.0 mi ESE 13.8 mph 21.9 mph N/A   Overcast
1:55 PM 30.0 °F 17.9 °F 18.0 °F 61% 29.77 in 10.0 mi SE 18.4 mph 28.8 mph N/A   Partly Cloudy
2:46 PM 30.0 °F 19.1 °F 21.0 °F 69% 29.72 in 9.0 mi SE 15.0 mph 29.9 mph N/A   Mostly Cloudy
2:55 PM 30.0 °F 17.2 °F 21.0 °F 69% 29.75 in 6.0 mi SE 20.7 mph 33.4 mph N/A   Haze
3:10 PM 30.0 °F 18.3 °F 21.0 °F 69% 29.70 in 7.0 mi SE 17.3 mph 34.5 mph N/A   Overcast
3:55 PM 30.0 °F 17.2 °F 21.0 °F 69% 29.72 in 10.0 mi SE 20.7 mph 27.6 mph N/A   Mostly Cloudy
4:55 PM 30.0 °F 18.7 °F 21.9 °F 72% 29.70 in 10.0 mi SE 16.1 mph 25.3 mph N/A   Mostly Cloudy
5:55 PM 30.0 °F 18.3 °F 21.9 °F 72% 29.70 in 10.0 mi SE 17.3 mph 25.3 mph N/A   Overcast
6:55 PM 30.0 °F 20.0 °F 21.9 °F 72% 29.70 in 10.0 mi SE 12.7 mph 21.9 mph N/A   Overcast
7:55 PM 30.9 °F 22.2 °F 23.0 °F 72% 29.66 in 10.0 mi ESE 10.4 mph 24.2 mph N/A   Overcast
8:55 PM 30.9 °F 20.7 °F 23.0 °F 72% 29.62 in 10.0 mi ESE 13.8 mph 21.9 mph N/A   Overcast
9:52 PM 30.2 °F 20.8 °F 24.8 °F 80% 29.57 in 10.0 mi ESE 11.5 mph 21.9 mph 0.00 in   Overcast
9:55 PM 30.9 °F 21.7 °F 24.1 °F 76% 29.60 in 10.0 mi ESE 11.5 mph 21.9 mph 0.00 in   Overcast
10:47 PM 30.9 °F 22.8 °F 26.1 °F 82% 29.54 in 2.5 mi ESE 9.2 mph - 0.02 in Snow Light Snow
10:55 PM 30.9 °F 22.8 °F 26.1 °F 82% 29.56 in 2.5 mi ESE 9.2 mph - 0.03 in Snow Light Snow
11:03 PM 30.0 °F 22.4 °F 27.0 °F 88% 29.52 in 3.0 mi ESE 8.1 mph 18.4 mph 0.00 in Snow Light Snow
11:22 PM 30.9 °F 22.2 °F 27.0 °F 85% 29.52 in 5.0 mi East 10.4 mph - 0.00 in   Overcast
11:55 PM 30.9 °F 23.5 °F 28.0 °F 89% 29.52 in 3.0 mi East 8.1 mph 17.3 mph 0.02 in Snow Light Snow